TIME,DELAY(SENSOR),PRES,T(CTD),SAL,OXYGEN,RAWTEMP,T(OPTODE),TCPHASE,FLUOR,BETA(BETA700),BETA(BETA412),BETA(BETA440),CDOM,C(CSC),ED(ED412.40),ED(ED444.00),ED(ED489.70),ED(ED554.30),LU(LU411.80),LU(LU443.40),LU(LU489.60),LU(LU554.10),COMP,TILTX,TILTX(TILTY),CHECK
1380231179,5810,497.1799926757812500,6.7116999626159670,34.1408004760742200,76.8010482788086000,596.6400756835938000,6.6927509307861330,49.2386093139648440,52,108,83,79,77,15257,2147745508,2147425362,2148010075,2147874678,2147627190,2147072109,2148246784,2147203428,3573,4,13,25825
1380231313,5809,486.2200012207031000,6.8087000846862790,34.1288986206054700,82.1195068359375000,593.7183227539062000,6.7870030403137210,48.5710105895996100,51,104,87,81,77,15261,2147746121,2147426861,2148012096,2147872420,2147628379,2147070052,2148239515,2147205266,1156,4,13,52786
1380231445,5807,475.7799987792969000,6.8692998886108400,34.1153984069824200,87.5218734741211000,591.7680053710938000,6.8498687744140625,47.9243812561035160,52,106,87,80,77,15258,2147745673,2147428342,2148011355,2147876800,2147627117,2147073883,2148244681,2147208493,574,3,13,8726
1380231619,5808,461.1099853515625000,7.1654000282287600,34.1105003356933600,94.1619873046875000,582.7111816406250000,7.1413540840148930,47.0500907897949200,51,103,84,79,76,15261,2147746989,2147424146,2148010733,2147873508,2147628909,2147078025,2148241554,2147203254,2695,4,13,5864
1380231730,5810,450.0199890136719000,7.1876001358032230,34.1032981872558600,102.1156997680664000,581.4603271484375000,7.1815547943115230,46.1842689514160160,51,102,84,78,75,15258,2147746715,2147428608,2148011419,2147873371,2147626651,2147071588,2148237421,2147204251,2133,4,13,12403
1380231840,5811,439.0799865722656000,7.3271999359130860,34.0873985290527340,112.5279998779296900,577.4967041015625000,7.3088378906250000,45.0635108947753900,51,102,85,79,74,15261,2147744630,2147427446,2148010313,2147873846,2147626962,2147078692,2148233225,2147203977,2201,4,13,31286
1380231952,5808,428.3999938964844000,7.4465999603271480,34.0858001708984400,120.4029998779296900,573.5828247070312000,7.4343891143798830,44.2388801574707000,50,103,87,79,75,15261,2147746624,2147429110,2148008649,2147875291,2147625435,2147081526,2148238820,2147201444,1533,4,13,37978
1380232073,5808,417.2099914550781000,7.7301001548767090,34.0862998962402340,125.6920013427734400,564.8286132812500000,7.7147197723388670,43.5978088378906250,51,104,86,80,75,15260,2147747300,2147426194,2148007835,2147872466,2147626322,2147079268,2148239387,2147206793,1669,3,13,32400
1380232208,5809,405.9599914550781000,7.9039998054504395,34.0862998962402340,134.8112030029297000,559.2534179687500000,7.8929061889648440,42.6817512512207000,50,105,87,79,74,15261,2147743341,2147427401,2148009252,2147874002,2147621211,2147084306,2148238500,2147205723,541,3,13,61040
1380232340,5809,395.0599975585937500,8.2679996490478520,34.0993003845214840,137.5036010742187500,547.9739990234375000,8.2525959014892580,42.2526283264160160,50,104,84,81,74,15259,2147741686,2147424694,2148011236,2147872475,2147621595,2147085513,2148234404,2147203154,3435,4,13,690
1380232461,5807,384.7000122070312500,8.5172004699707030,34.0960998535156250,145.5034027099609400,539.9647216796875000,8.5073738098144530,41.4358406066894500,50,104,86,79,73,15255,2147741266,2147429604,2148009307,2147871643,2147620041,2147091501,2148229997,2147204251,2978,4,13,52147
1380232595,5809,373.1400146484375000,8.7728004455566400,34.0974998474121100,155.0106048583984400,532.1364135742188000,8.7558956146240230,40.5294113159179700,50,106,81,79,73,15256,2147743232,2147428507,2148011968,2147874422,2147620013,2147091849,2148229924,2147204891,2708,3,13,22369
1380232727,5810,361.9800109863281000,8.9790000915527340,34.0971984863281250,161.5493927001953000,525.5535278320312000,8.9645118713378900,39.9079818725585940,49,105,89,80,71,15255,2147739840,2147427318,2148009344,2147875858,2147619017,2147089051,2148229650,2147203684,1999,3,13,21601
1380232862,5808,351.5100097656250000,9.4221000671386720,34.1081008911132800,170.4499969482422000,511.6068115234375000,9.4054059982299800,39.0046386718750000,50,106,89,78,70,15258,2147736704,2147426989,2148008749,2147874907,2147615625,2147089718,2148232795,2147204973,347,3,13,48952
1380233005,5809,340.4800109863281000,9.9731998443603520,34.1209983825683600,176.9954986572265600,493.9884033203125000,9.9603681564331050,38.2356414794921900,50,105,88,79,71,15257,2147739574,2147428416,2148014902,2147873261,2147615524,2147094966,2148227885,2147207094,101,4,13,20227
1380233159,5809,329.2799987792969000,10.5073995590209960,34.1329994201660160,177.2463989257812500,476.2044067382812500,10.5184001922607420,37.9183616638183600,48,106,85,81,69,15252,2147734070,2147428315,2148012891,2147872009,2147611437,2147104630,2148223369,2147206189,345,3,13,61304
1380233289,5810,318.4899902343750000,10.8530998229980470,34.1363983154296900,178.4902954101562500,465.7052917480469000,10.8468999862670900,37.6571083068847660,49,107,84,79,71,15251,2147734902,2147428754,2148024155,2147872036,2147606619,2147108096,2148227904,2147209453,2530,3,13,57924
1380233465,5812,304.8900146484375000,11.5831003189086910,34.1552009582519500,183.9356994628906200,443.0309143066406000,11.5540895462036130,36.9107704162597660,49,107,84,80,69,15253,2147732525,2147434944,2148032512,2147871808,2147605915,2147107044,2148227008,2147207314,765,3,13,38743
1380233604,5808,292.7300109863281000,11.9862003326416020,34.1543006896972660,185.9114990234375000,429.2770080566406000,11.9816598892211910,36.5558700561523440,50,106,85,81,67,15251,2147726153,2147432585,2148038134,2147873773,2147603446,2147115017,2148221476,2147203977,2416,3,13,64468
1380233714,5809,281.9100036621094000,12.3843002319335940,34.1705017089843750,188.5923004150390600,414.1084899902344000,12.4520902633667000,36.1362800598144500,48,105,84,80,68,15250,2147728914,2147444681,2148062994,2147872768,2147600594,2147131227,2148240182,2147213504,2142,3,13,25455
1380233826,5810,270.5199890136719000,13.4695997238159180,34.2760009765625000,201.9768981933593800,380.1771850585937500,13.5005798339843750,34.7655982971191400,49,104,85,79,67,15250,2147727195,2147447424,2148069540,2147871616,2147596608,2147132397,2148238966,2147208777,1601,3,14,21922
1380233947,5807,258.9599914550781000,14.1930999755859380,34.3381004333496100,205.6759033203125000,358.2116088867187500,14.1768903732299800,34.2103691101074200,48,106,88,80,66,15248,2147721152,2147461961,2148110985,2147875904,2147591387,2147147556,2148246427,2147212480,262,4,13,33702
1380234068,5809,248.0599975585937500,15.0335998535156250,34.4429016113281250,212.1652069091797000,328.2871093750000000,15.0957298278808600,33.3908386230468750,48,103,84,79,65,15248,2147726537,2147486509,2148175497,2147870272,2147589101,2147162971,2148274669,2147216192,3034,3,14,62649
1380234191,5808,237.5099945068359400,15.9427003860473630,34.5489997863769500,215.7355957031250000,300.8660888671875000,15.9356803894042970,32.7927513122558600,48,105,84,79,65,15245,2147724324,2147513993,2148239634,2147871826,2147585225,2147190692,2148301330,2147219291,2018,2,14,4623
1380234323,5807,226.8800048828125000,16.4615993499755860,34.6099014282226560,215.6679992675781200,282.8862915039062500,16.4856491088867200,32.5381202697753900,50,103,86,79,65,15240,2147727213,2147555968,2148328530,2147871414,2147582070,2147217124,2148341979,2147225389,1613,2,14,4871
1380234469,5807,216.1999969482422000,17.0151004791259770,34.6805992126464840,216.0426025390625000,265.1713867187500000,17.0270805358886720,32.2659683227539060,50,102,83,80,65,15243,2147735643,2147617728,2148456557,2147872859,2147580224,2147255387,2148402048,2147227840,103,2,14,58749
1380234634,5810,205.2599945068359400,17.8595008850097660,34.7980995178222660,216.0404052734375000,237.3916015625000000,17.8756103515625000,31.8770503997802730,50,107,85,79,64,15241,2147755812,2147703451,2148621595,2147874825,2147589860,2147312960,2148482907,2147228525,2671,3,14,19129
1380234758,5806,198.2400054931640600,18.8038997650146500,34.9322013854980500,217.1981048583984400,208.4134979248047000,18.7605800628662100,31.4159793853759770,51,103,85,79,63,15238,2147771922,2147782217,2148776237,2147872749,2147595693,2147372726,2148557933,2147241773,620,2,14,57893
1380234835,5809,194.8099975585937500,19.0074005126953120,34.9648017883300800,218.1006927490234400,200.6452026367187500,18.9978694915771500,31.2625999450683600,52,103,84,79,62,15235,2147783012,2147820736,2148845659,2147876251,2147598217,2147395657,2148586349,2147244608,131,2,15,40576
1380234923,5808,190.6300048828125000,19.1917991638183600,34.9944000244140600,218.6580963134765600,194.7001037597656200,19.1795005798339840,31.1525306701660160,52,104,84,79,63,15235,2147799049,2147874368,2148949952,2147871579,2147604324,2147435986,2148637869,2147246418,2969,2,15,64464
1380235011,5807,186.3300018310547000,19.3931007385253900,35.0293006896972660,219.2872924804687500,187.8493041992187500,19.3888397216796880,31.0270500183105470,50,100,86,79,62,15234,2147815314,2147935762,2149063113,2147875291,2147607076,2147477933,2148700013,2147251922,2698,2,15,55159
1380235090,5807,182.6399993896484400,19.7430000305175780,35.0830001831054700,219.6410064697265600,177.1950988769531200,19.7145004272460940,30.8652992248535160,52,101,87,79,62,15233,2147830016,2147988105,2149174080,2147873636,2147614509,2147514953,2148753828,2147254390,2109,2,15,46499
1380235189,5805,178.8399963378906200,19.8624992370605470,35.1030998229980500,221.1114959716797000,172.7178955078125000,19.8513908386230470,30.7296600341796880,53,102,87,80,62,15230,2147857993,2148068032,2149324525,2147876982,2147626075,2147568896,2148829558,2147260260,1589,2,15,19996
1380235310,5808,175.0099945068359400,20.0540008544921880,35.1314010620117200,221.8977966308593800,166.5933990478515600,20.0387001037597660,30.6077804565429700,54,103,86,81,62,15226,2147886930,2148144292,2149455616,2147876288,2147639250,2147621174,2148898486,2147263744,772,2,15,6048
1380235435,5807,170.6000061035156200,20.3127994537353500,35.1684989929199200,222.8045959472656200,158.0989990234375000,20.2985992431640620,30.4488792419433600,55,103,86,79,61,15229,2147929755,2148257572,2149664667,2147877650,2147660032,2147702793,2149005732,2147271323,704,2,15,799
1380235523,5806,166.8500061035156200,20.4500007629394530,35.1896018981933600,223.7599029541015600,153.1813964843750000,20.4491100311279300,30.3357791900634770,57,103,87,80,60,15227,2147970669,2148364342,2149852690,2147876388,2147679277,2147774390,2149100233,2147278966,1049,2,15,11713
1380235622,5809,162.5399932861328000,20.5848007202148440,35.2098999023437500,225.1909027099609400,148.9570007324218800,20.5784492492675780,30.2083606719970700,61,105,85,80,60,15223,2148021376,2148455917,2150012342,2147880301,2147704137,2147841600,2149185225,2147287378,34,2,15,4576
1380235712,5807,158.4400024414062500,20.7231998443603500,35.2249984741210940,225.5272979736328000,144.6641998291015600,20.7099208831787100,30.1352996826171880,61,109,87,80,61,15221,2148102893,2148646482,2150356233,2147882066,2147746349,2147964662,2149351497,2147300169,2831,1,15,47881
1380235800,5808,154.6900024414062500,20.8948993682861330,35.2436981201171900,226.2407073974609400,139.0980987548828000,20.8804492950439450,30.0269908905029300,66,107,88,81,61,15215,2148106898,2148578889,2150156891,2147883812,2147748022,2147932388,2149260653,2147294189,1231,2,15,11921
1380235899,5808,150.6399993896484400,21.0140991210937500,35.2505989074707000,227.2855072021484400,135.3610992431640600,20.9949798583984380,29.9264793395996100,69,112,84,81,60,15208,2148166345,2148667757,2150290011,2147888301,2147776466,2147981184,2149324909,2147297782,765,2,15,47423
1380236001,5808,146.8399963378906200,21.2070007324218750,35.2779998779296900,227.8538970947265600,128.9461059570312500,21.1916599273681640,29.8150806427001950,76,110,85,79,61,15203,2148381430,2149172123,2151218742,2147894710,2147879232,2148308315,2149780854,2147328685,3569,2,15,60669
1380236111,5807,143.1799926757812500,21.2840003967285160,35.2767982482910160,228.6548004150390600,126.1134033203125000,21.2785396575927730,29.7391891479492200,83,113,88,80,61,15195,2148583744,2149590153,2151934262,2147895488,2147971145,2148545545,2150104466,2147354797,2358,2,15,21870
1380236254,5816,139.0099945068359400,21.3153991699218750,35.2788009643554700,229.5570983886718800,124.9940032958984400,21.3128795623779300,29.6809997558593750,85,113,86,80,60,15196,2148826944,2150041316,2152660178,2147906998,2148083044,2148784329,2150402349,2147375771,1797,2,15,18988
1380236372,5807,134.4499969482422000,21.4573993682861330,35.2952003479003900,230.0083007812500000,120.4124984741211000,21.4534606933593750,29.5999698638916000,87,114,87,81,61,15188,2149158317,2150596891,2153532571,2147919890,2148233161,2149087643,2150780324,2147408100,1388,1,15,22541
1380236460,5806,130.6000061035156200,21.5289993286132800,35.3008995056152340,230.4481964111328000,118.0367965698242200,21.5263805389404300,29.5480308532714840,94,112,88,80,60,15179,2149507675,2151121398,2154351268,2147931382,2148380964,2149357156,2151130669,2147437888,168,1,15,43694
1380236548,5807,126.9400024414062500,21.7919998168945300,35.3143997192382800,230.5312957763672000,110.0212020874023400,21.7725296020507800,29.4408798217773440,105,117,87,81,59,15163,2149923922,2151817398,2155405522,2147945316,2148555547,2149658861,2151515702,2147470299,2309,1,15,54419
1380236661,5810,122.6299972534179700,21.9951000213623050,35.3053016662597660,232.2597961425781200,103.4300003051757800,21.9750900268554700,29.2738094329834000,121,118,87,82,60,15152,2150572269,2152855698,2156990464,2147975552,2148805869,2150097179,2152070226,2147516763,744,1,15,26522
1380236760,5809,118.8300018310546900,22.1151008605957030,35.3082008361816400,233.9591979980468800,99.3578872680664000,22.1003093719482420,29.1413497924804700,130,118,89,82,60,15136,2151082011,2153592329,2157944192,2147993581,2148981540,2150341312,2152378496,2147551826,3442,1,16,25576
1380236870,5808,114.7200012207031200,22.2266998291015620,35.3171005249023440,235.3341979980468800,95.5673828125000000,22.2169094085693360,29.0286102294921880,137,117,85,82,60,15137,2152441472,2155810011,2161161526,2148054555,2149493888,2151233609,2153518473,2147655771,3105,1,15,55080
1380236965,5807,110.5400009155273400,22.3094005584716800,35.3280982971191400,236.8777008056640600,92.7374191284179700,22.3040008544921880,28.9211292266845700,131,117,89,82,60,15137,2154327570,2158720612,2164998994,2148138925,2150212324,2152415305,2154918454,2147787858,2350,2,15,24226
1380237042,5809,106.2600021362304700,22.4846992492675780,35.3325996398925800,237.9071960449218800,86.8980331420898400,22.4837799072265620,28.7996902465820300,121,119,86,81,59,15134,2156710592,2162275300,2169610578,2148256758,2151169883,2153943771,2156693677,2147965906,2078,1,16,64357
1380237119,5813,102.4300003051757800,22.5669002532959000,35.3378982543945300,239.5702056884765600,84.4292068481445300,22.5598297119140620,28.6924800872802730,107,114,87,83,60,15144,2156352877,2160880128,2166430802,2148215277,2151123200,2153455990,2155707273,2147889024,1802,2,16,14409
1380237196,5807,98.7300033569336000,22.7031002044677730,35.3414001464843750,240.4205017089843800,80.5999374389648400,22.6778297424316400,28.6055507659912100,98,120,89,81,60,15133,2159039798,2164762066,2171348004,2148368795,2152188489,2155076352,2157443520,2148068086,1627,1,16,10806
1380237253,5807,96.2900009155273400,22.7803993225097660,35.3470993041992200,241.5691986083984400,77.6691818237304700,22.7681808471679700,28.5168399810791000,93,117,88,83,60,15141,2155213238,2158212864,2161640210,2148167076,2150684982,2152205650,2153739922,2147734939,1747,1,15,13939
1380237308,5808,94.3300018310546900,22.8759994506835940,35.3502006530761700,242.3522033691406200,74.5751571655273400,22.8636093139648440,28.4429607391357420,90,118,90,81,59,15140,2157358427,2161286409,2165547940,2148290998,2151663753,2153744731,2155476644,2147897508,1461,1,16,12178
1380237363,5805,92.5599975585937500,22.9171009063720700,35.3522987365722660,242.8600006103515600,73.1797103881836000,22.9066505432128900,28.4026393890380860,88,115,88,84,59,15137,2157323931,2160913088,2164687844,2148277467,2151693504,2153639030,2155218642,2147875858,1063,2,16,62218
1380237418,5808,90.7099990844726600,22.9472007751464840,35.3535995483398440,243.1313934326172000,71.9823226928711000,22.9435997009277340,28.3757190704345700,86,118,89,83,59,15130,2158307300,2162030720,2165797787,2148335625,2152144082,2154229741,2155751533,2147935926,862,1,16,21053
1380237473,5807,88.6600036621093800,22.9622993469238280,35.3543014526367200,243.5652008056640600,71.5141906738281200,22.9580402374267580,28.3504104614257800,86,119,91,82,60,15132,2163868288,2169700571,2175236306,2148649947,2154671917,2158130843,2160059876,2148341083,617,1,15,1609
1380237528,5809,86.3199996948242200,22.9827003479003900,35.3530998229980500,243.9114990234375000,70.6100769042968800,22.9859504699707030,28.3238391876220700,87,117,88,82,60,15131,2171615085,2180297197,2188295186,2149210971,2157981101,2163084781,2165343936,2148885632,489,2,16,62490
1380237612,5808,81.6299972534179700,23.0694007873535160,35.3525009155273440,244.2581024169922000,68.6409606933593800,23.0467300415039060,28.2838592529296880,78,120,88,83,58,15127,2163697947,2167775378,2171044653,2148683849,2154996269,2157802907,2158962724,2148276315,739,1,15,13940
1380237667,5807,77.8399963378906200,23.1594009399414060,35.3522987365722660,244.9611968994140600,64.8930435180664000,23.1624507904052730,28.2059803009033200,83,122,88,84,59,15128,2188001517,2200068690,2209344987,2150575506,2165924973,2173618057,2175303588,2149994075,1117,1,16,50590
1380237722,5809,74.0699996948242200,23.2597999572753900,35.3530998229980500,246.5702056884765600,62.0140991210937500,23.2513904571533200,28.0995597839355470,77,120,92,84,58,15129,2170548790,2174887378,2177548050,2149209298,2158537444,2161896192,2162280310,2148675282,939,2,15,60261
1380237777,5808,70.6500015258789000,23.3626995086669920,35.3518981933593750,247.1562957763672000,58.0441017150878900,23.3740901947021500,28.0246696472167970,77,122,89,84,57,15122,2193703460,2203881490,2211048676,2151501357,2168673417,2175678921,2175690541,2150211346,433,2,16,36721
1380237832,5809,67.7099990844726600,23.4521999359130860,35.3539009094238300,248.5260009765625000,55.7479782104492200,23.4450893402099600,27.9366798400878900,77,124,90,85,59,15118,2215831798,2230576877,2240881600,2153808091,2180822857,2192153892,2191948214,2152035401,332,1,15,56572
1380237911,5807,65.0599975585937500,23.4937992095947270,35.3538017272949200,249.4181976318359400,54.3098411560058600,23.4895706176757800,27.8804397583007800,72,123,90,84,60,15118,2194433270,2201421549,2205081005,2151543716,2170989714,2177204937,2175811748,2150292086,400,1,15,26347
1380238365,5815,63.5000000000000000,23.9720001220703120,35.3574981689453100,251.5435028076172000,39.2965812683105500,23.9544906616210940,27.6047096252441400,67,123,90,85,58,15104,2200991405,2206540992,2207603264,2151857947,2176539538,2182455195,2178830070,2150641280,1782,1,16,24009
1380238486,5807,61.3400001525878900,24.1639003753662100,35.3557014465332000,251.8202056884765600,33.8855895996093750,24.1223201751709000,27.5265007019042970,70,121,89,84,57,15104,2243917184,2256748141,2261865417,2156557988,2199580544,2211700699,2205359981,2153799277,1497,1,16,57045
1380238581,5808,59.2700004577636700,24.4491004943847660,35.3601989746093750,252.2041931152343800,24.1275291442871100,24.4253501892089840,27.3908195495605470,68,125,90,84,59,15092,2254438537,2267435200,2272351350,2158393737,2206189851,2218445321,2210683254,2154595218,2366,1,16,641
1380238713,5807,57.7900009155273440,24.6791000366210940,35.3670005798339840,252.9958953857422000,17.1743507385253900,24.6415901184082030,27.2728290557861330,66,124,97,87,56,15088,2234228224,2241896484,2243224265,2155967094,2197467382,2206154724,2198112283,2153124955,2348,0,16,2501
1380238930,5805,54.9700012207031250,24.9188003540039060,35.3802986145019500,252.5478973388672000,8.2016048431396480,24.9210205078125000,27.1821899414062500,63,124,90,85,57,15089,2226982052,2230924489,2230197568,2155598107,2196550683,2202857152,2193488054,2152665828,1098,1,16,60548
1380238985,5808,52.7700004577636700,25.0118007659912100,35.3801002502441400,252.3833007812500000,5.5563478469848630,25.0034904479980470,27.1570396423339840,63,125,92,85,57,15077,2220614729,2221877732,2219916845,2155266532,2193284845,2197428928,2187971355,2152116096,663,1,16,55055
1380239040,5807,50.7400016784668000,25.0398006439209000,35.3819007873535160,252.5236968994140600,4.3679151535034180,25.0405502319335940,27.1368007659912100,61,124,92,85,56,15086,2225083574,2225671616,2223168557,2156163465,2196429860,2200195264,2189663890,2152431771,284,1,16,32696
1380239095,5810,49.0299987792968750,25.0884990692138670,35.3805007934570300,252.5540924072265600,2.7787148952484130,25.0901203155517580,27.1161499023437500,60,125,91,85,58,15090,2234882898,2235089316,2232121682,2157832969,2203974537,2208099821,2195766153,2153267840,2248,1,16,5767
1380239179,5809,46.4799995422363300,25.1741008758544920,35.3464012145996100,252.6647033691406200,-0.1697480976581574,25.1821403503417970,27.0757808685302730,61,129,92,86,57,15079,2243798601,2242486253,2238111853,2159510656,2210879030,2213617508,2198765787,2153924196,3394,1,16,3503
1380239234,5810,44.6800003051757800,25.7805995941162100,35.3294982910156250,250.7203063964843800,-17.3893394470214840,25.7205600738525400,26.9487209320068360,62,132,92,87,56,15063,2265459401,2265817901,2261070052,2163705718,2229937188,2233870692,2214417581,2156200649,1988,2,16,19816
1380239550,5806,43.8499984741210940,26.7376995086669920,35.4314002990722660,242.6336059570312500,-47.3410186767578100,26.6616592407226560,26.9309997558593750,60,129,94,85,54,15060,2317591890,2321096283,2316248932,2172091108,2267826953,2274288539,2245374253,2160502500,2182,2,16,24220
1380239789,5810,40.5699996948242200,26.8845996856689450,35.4396018981933600,239.8258972167968800,-54.0862007141113300,26.8744602203369140,26.9715309143066400,58,129,93,87,54,15056,2302832137,2302103030,2295973229,2172891702,2261423570,2264284507,2236082834,2159893083,2636,0,16,17167
1380239844,5807,38.8899993896484400,27.1522998809814450,35.4398002624511700,237.7194061279297000,-62.3584213256835940,27.1358795166015620,26.9639701843261720,60,127,95,88,57,15060,2348164397,2350771355,2346370861,2184153627,2295694592,2299177956,2262511579,2164517284,2565,1,16,54606
1380239921,5805,37.6500015258789060,27.2924995422363280,35.4313011169433600,235.9871063232422000,-66.3282165527343800,27.2615203857421880,26.9925193786621100,59,127,93,87,56,15063,2352485705,2354338194,2348692589,2186497069,2313498349,2316604123,2275162240,2166808658,2307,2,16,57683
1380240104,5809,35.1699981689453100,27.5827007293701170,35.3008995056152340,230.2743988037109400,-76.4750366210937500,27.5831909179687500,27.1267700195312500,55,122,94,86,56,15065,2378321554,2380341622,2376724845,2198601536,2335769417,2336246628,2288540608,2169892708,2819,0,16,59274
1380240192,5806,33.6399993896484400,27.5949993133544920,35.2907981872558600,228.2378997802734400,-78.8717727661132800,27.6592903137207030,27.1909103393554700,54,123,91,83,54,15075,2377238381,2378157504,2375021028,2198807625,2336622043,2336312886,2288249554,2170049974,3322,1,17,53066
1380240398,5807,31.1399993896484380,27.5886001586914060,35.2883987426757800,226.0614929199218800,-78.0023803710937500,27.6316795349121100,27.3024291992187500,53,121,91,85,54,15078,2392634441,2393653083,2391788672,2209735744,2356738660,2353984246,2299479670,2172535570,882,1,17,33399
1380240464,5807,28.6000003814697270,27.5911998748779300,35.2845993041992200,225.4826965332031200,-77.4851684570312500,27.6152591705322270,27.3359203338623050,52,121,90,82,56,15084,2414923867,2417305956,2416913362,2224521764,2400203940,2393021851,2325585078,2179578578,1075,1,16,23550